Terminal Aerodrome Forecast
Issued by NWS

Home | Current Version | Previous Version | Text Only | Print | Product List | Glossary On
Versions: 1 2 3 4 5 6 7 8 9 10 11 12 13 14 15 16 17 18 19 20 21 22 23 24 25 26 27 28 29 30 31 32 33 34 35 36 37 38 39 40 41 42 43 44 45 46 47 48 49 50
000
FTUS41 KCTP 300525
TAFBFD
TAF
KBFD 300525Z 3006/3106 29012G25KT 3SM -SN BKN012 BKN017 OVC035
      TEMPO 3006/3009 1/2SM SN OVC005
     FM301500 31014G21KT 3SM -SHSN OVC015
     FM310100 31012G22KT P6SM OVC025=

USA.gov is the U.S. government's official web portal to all federal, state and local government web resources and services.